Location: Bailey Volunteer Fire Department
(33.4359°N, 96.1680°W)
Time: 16:41:04
(UTC+00:00)

Cosmos 2221 - Pass Details

Date: 13 December 2025
Orbit: 569 x 590 km, 82.5° (Epoch: 13 January)

Event Time Altitude Azimuth Distance (km) Brightness Sun altitude
Rises 12:14:58 0° 360° (N) 2,774 5.7 -13.3°
Reaches altitude 10° 12:17:13 10° 6° (N) 1,873 4.9 -12.9°
Maximum altitude 12:21:12 48° 81° (E) 749 3.4 -12.1°
Drops below altitude 10° 12:25:11 10° 157° (SSE) 1,864 5.7 -11.3°
Sets 12:27:25 0° 162° (SSE) 2,760 6.5 -10.9°
